When you browse on this site, cookies collect data to enhance your experience and personalize the content and advertising you see.
Visit our Privacy Policy to learn more. By continuing to use the site, you agree to this use of cookies and data.
  • In Spain
  • List of Countries
  • For 7 days
  • Water Temperature
  • Weather Map
  • Weather Widgets
  • user-avatar
    Login

    Hourly Weather Lorca

    Today, 27 February, Thursday

    Time Temperature Precipitation Wind Pressure Humidity
    00:00 +12°C° 0 mm 1 mps 734 mmHg 63%
    01:00 +12°C° 0 mm 1 mps 733 mmHg 64%
    02:00 +11°C° 0 mm 1 mps 733 mmHg 65%
    03:00 +11°C° 0 mm 1 mps 733 mmHg 66%
    04:00 +11°C° 0 mm 1 mps 733 mmHg 67%
    05:00 +10°C° 0 mm 1 mps 733 mmHg 68%
    06:00 +10°C° 0 mm 1 mps 734 mmHg 67%
    07:00 +12°C° 0 mm 1 mps 734 mmHg 60%
    08:00 +13°C° 0 mm 1 mps 734 mmHg 53%
    09:00 +15°C° 0 mm 1 mps 735 mmHg 45%
    10:00 +18°C° 0 mm 1 mps 735 mmHg 41%
    11:00 +18°C° 0 mm 2 mps 735 mmHg 37%
    12:00 +20°C° 0 mm 3 mps 735 mmHg 32%
    13:00 +20°C° 0 mm 2 mps 734 mmHg 33%
    14:00 +21°C° 0 mm 2 mps 734 mmHg 33%
    15:00 +21°C° 0 mm 2 mps 734 mmHg 34%
    16:00 +19°C° 0 mm 2 mps 734 mmHg 42%
    17:00 +17°C° 0 mm 2 mps 734 mmHg 50%
    18:00 +15°C° 0 mm 2 mps 734 mmHg 57%
    19:00 +15°C° 0 mm 1 mps 734 mmHg 56%
    20:00 +14°C° 0 mm 1 mps 735 mmHg 55%
    21:00 +14°C° 0 mm 1 mps 735 mmHg 53%
    22:00 +13°C° 0 mm 1 mps 735 mmHg 53%
    23:00 +13°C° 0 mm 1 mps 735 mmHg 53%

    Tomorrow, 28 February, Friday

    Time Temperature Precipitation Wind Pressure Humidity
    00:00 +13°C° 0 mm 1 mps 735 mmHg 52%
    01:00 +12°C° 0 mm 1 mps 735 mmHg 52%
    02:00 +12°C° 0 mm 1 mps 734 mmHg 52%
    03:00 +10°C° 0 mm 0 mps 734 mmHg 53%
    04:00 +10°C° 0 mm 0 mps 734 mmHg 53%
    05:00 +10°C° 0 mm 0 mps 734 mmHg 54%
    06:00 +9°C° 0 mm 0 mps 734 mmHg 55%
    07:00 +12°C° 0 mm 0 mps 734 mmHg 48%
    08:00 +14°C° 0 mm 0 mps 735 mmHg 42%
    09:00 +17°C° 0 mm 0 mps 735 mmHg 35%
    10:00 +20°C° 0 mm 1 mps 735 mmHg 33%
    11:00 +20°C° 0 mm 2 mps 735 mmHg 31%
    12:00 +21°C° 0 mm 3 mps 734 mmHg 29%
    13:00 +21°C° 0 mm 4 mps 734 mmHg 29%
    14:00 +22°C° 0 mm 4 mps 733 mmHg 29%
    15:00 +22°C° 0 mm 4 mps 732 mmHg 30%
    16:00 +20°C° 0 mm 3 mps 732 mmHg 36%
    17:00 +17°C° 0 mm 3 mps 732 mmHg 43%
    18:00 +15°C° 0 mm 2 mps 732 mmHg 50%
    19:00 +15°C° 0 mm 2 mps 732 mmHg 51%
    20:00 +14°C° 0 mm 2 mps 732 mmHg 52%
    21:00 +13°C° 0 mm 1 mps 732 mmHg 53%
    22:00 +13°C° 0 mm 1 mps 731 mmHg 53%
    23:00 +13°C° 0 mm 1 mps 731 mmHg 52%

    Day after tomorrow, 29 February, Saturday

    Time Temperature Precipitation Wind Pressure Humidity
    00:00 +13°C° 0 mm 1 mps 731 mmHg 51%
    01:00 +13°C° 0 mm 1 mps 730 mmHg 52%
    02:00 +12°C° 0 mm 2 mps 730 mmHg 53%
    03:00 +12°C° 0 mm 2 mps 729 mmHg 54%
    04:00 +12°C° 0 mm 2 mps 729 mmHg 53%
    05:00 +12°C° 0 mm 2 mps 729 mmHg 52%
    06:00 +12°C° 0 mm 2 mps 729 mmHg 52%
    07:00 +13°C° 0 mm 3 mps 730 mmHg 47%
    08:00 +16°C° 0 mm 3 mps 730 mmHg 43%
    09:00 +18°C° 0 mm 4 mps 730 mmHg 38%
    10:00 +19°C° 0 mm 4 mps 731 mmHg 35%
    11:00 +20°C° 0 mm 5 mps 731 mmHg 33%
    12:00 +22°C° 0 mm 5 mps 731 mmHg 30%
    13:00 +22°C° 0 mm 6 mps 731 mmHg 31%
    14:00 +22°C° 0 mm 6 mps 730 mmHg 32%
    15:00 +22°C° 0 mm 6 mps 730 mmHg 33%
    16:00 +21°C° 0 mm 5 mps 730 mmHg 38%
    17:00 +19°C° 0 mm 4 mps 730 mmHg 42%
    18:00 +18°C° 0 mm 3 mps 730 mmHg 47%
    19:00 +17°C° 0 mm 3 mps 730 mmHg 50%
    20:00 +17°C° 0 mm 3 mps 730 mmHg 53%
    21:00 +15°C° 0 mm 4 mps 730 mmHg 56%
    22:00 +15°C° 0 mm 4 mps 730 mmHg 59%
    23:00 +16°C° 0 mm 3 mps 730 mmHg 61%

    1 March, Sunday

    Time Temperature Precipitation Wind Pressure Humidity
    00:00 +16°C° 0 mm 3 mps 730 mmHg 64%
    01:00 +14°C° 0 mm 3 mps 730 mmHg 66%
    02:00 +14°C° 0 mm 3 mps 729 mmHg 69%
    03:00 +13°C° 0 mm 3 mps 729 mmHg 71%
    04:00 +13°C° 0 mm 3 mps 729 mmHg 70%
    05:00 +14°C° 0 mm 3 mps 729 mmHg 68%
    06:00 +14°C° 0 mm 3 mps 729 mmHg 67%
    07:00 +14°C° 0 mm 5 mps 730 mmHg 62%
    08:00 +15°C° 0 mm 6 mps 730 mmHg 57%
    09:00 +16°C° 0 mm 7 mps 730 mmHg 52%
    10:00 +17°C° 0 mm 7 mps 730 mmHg 47%
    11:00 +18°C° 0 mm 7 mps 731 mmHg 42%
    12:00 +20°C° 0 mm 7 mps 731 mmHg 37%
    13:00 +20°C° 0 mm 7 mps 730 mmHg 38%
    14:00 +20°C° 0 mm 7 mps 730 mmHg 38%
    15:00 +21°C° 0 mm 7 mps 730 mmHg 39%
    16:00 +19°C° 0 mm 6 mps 730 mmHg 44%
    17:00 +17°C° 0 mm 5 mps 729 mmHg 49%
    18:00 +17°C° 0 mm 4 mps 729 mmHg 54%
    19:00 +15°C° 0 mm 4 mps 730 mmHg 58%
    20:00 +16°C° 0 mm 3 mps 730 mmHg 61%
    21:00 +14°C° 0 mm 3 mps 730 mmHg 65%
    22:00 +14°C° 0 mm 3 mps 730 mmHg 65%
    23:00 +14°C° 0 mm 3 mps 729 mmHg 65%

    2 March, Monday

    Time Temperature Precipitation Wind Pressure Humidity
    00:00 +14°C° 0 mm 3 mps 729 mmHg 65%
    01:00 +14°C° 0 mm 4 mps 729 mmHg 66%
    02:00 +14°C° 0 mm 4 mps 728 mmHg 66%
    03:00 +14°C° 0 mm 5 mps 727 mmHg 67%
    04:00 +14°C° 0 mm 5 mps 727 mmHg 67%
    05:00 +14°C° 0 mm 5 mps 727 mmHg 68%
    06:00 +13°C° 0 mm 5 mps 726 mmHg 68%
    07:00 +15°C° 0 mm 6 mps 727 mmHg 63%
    08:00 +16°C° 0 mm 8 mps 727 mmHg 57%
    09:00 +17°C° 0 mm 10 mps 727 mmHg 52%
    10:00 +18°C° 0 mm 11 mps 727 mmHg 48%
    11:00 +19°C° 0 mm 12 mps 728 mmHg 44%
    12:00 +21°C° 0 mm 12 mps 728 mmHg 41%
    13:00 +19°C° 0 mm 13 mps 727 mmHg 43%
    14:00 +19°C° 0 mm 13 mps 727 mmHg 45%
    15:00 +19°C° 0 mm 13 mps 727 mmHg 47%
    16:00 +18°C° 0 mm 11 mps 727 mmHg 52%
    17:00 +17°C° 0 mm 9 mps 728 mmHg 57%
    18:00 +15°C° 0 mm 8 mps 728 mmHg 62%
    19:00 +15°C° 0 mm 6 mps 728 mmHg 65%
    20:00 +14°C° 0 mm 5 mps 729 mmHg 67%
    21:00 +13°C° 0 mm 3 mps 729 mmHg 70%
    22:00 +13°C° 0 mm 3 mps 729 mmHg 72%
    23:00 +13°C° 0 mm 3 mps 730 mmHg 74%

    3 March, Tuesday

    Time Temperature Precipitation Wind Pressure Humidity
    00:00 +13°C° 0 mm 3 mps 730 mmHg 76%
    01:00 +13°C° 0 mm 3 mps 730 mmHg 76%
    02:00 +13°C° 0 mm 3 mps 730 mmHg 77%
    03:00 +12°C° 0 mm 3 mps 730 mmHg 77%
    04:00 +12°C° 0 mm 3 mps 730 mmHg 79%
    05:00 +12°C° 0 mm 2 mps 731 mmHg 80%
    06:00 +12°C° 0 mm 2 mps 731 mmHg 82%
    07:00 +14°C° 0 mm 2 mps 732 mmHg 75%
    08:00 +15°C° 0 mm 2 mps 732 mmHg 68%
    09:00 +17°C° 0 mm 2 mps 733 mmHg 61%
    10:00 +18°C° 0 mm 3 mps 733 mmHg 55%
    11:00 +19°C° 0 mm 4 mps 733 mmHg 50%
    12:00 +20°C° 0 mm 5 mps 733 mmHg 45%
    13:00 +20°C° 0 mm 5 mps 733 mmHg 44%
    14:00 +20°C° 0 mm 5 mps 732 mmHg 43%
    15:00 +20°C° 0 mm 5 mps 732 mmHg 43%
    16:00 +19°C° 0 mm 4 mps 732 mmHg 48%
    17:00 +18°C° 0 mm 4 mps 732 mmHg 54%
    18:00 +17°C° 0 mm 3 mps 732 mmHg 59%
    19:00 +16°C° 0 mm 3 mps 732 mmHg 62%
    20:00 +14°C° 0 mm 3 mps 733 mmHg 65%
    21:00 +15°C° 0 mm 2 mps 733 mmHg 68%
    22:00 +14°C° 0 mm 3 mps 733 mmHg 71%
    23:00 +13°C° 0 mm 3 mps 733 mmHg 73%
    Show more